Location: Pardubice
(50.0618°N, 15.7556°E)
Time: 09:04:58
(UTC+02:00)

ISS - Pass Details

Date: 23 May 2018
Orbit: 402 x 406 km, 51.6° (Epoch: 22 June)

Event Time Altitude Azimuth Distance (km) Brightness Sun altitude
Rises 22:04:30 0° 238° (WSW) 2,315 0.1 -10.0°
Reaches altitude 10° 22:06:36 10° 234° (SW) 1,457 -1.0 -10.2°
Maximum altitude 22:09:48 56° 156° (SSE) 485 -3.8 -10.5°
Drops below altitude 10° 22:13:04 10° 77° (ENE) 1,480 -1.2 -10.8°
Sets 22:15:07 0° 73° (ENE) 2,321 -0.2 -11.0°
